Tegucigalpa, Honduras

9:50 AM CST en Agosto 14, 2018 (GMT -0600)
Toncontin International

Tiempo Historia de MHTG - Febrero, 2018

Change the Weather History Date:

Martes, Febrero 13, 2018

  Actual Average Record
Temperature  
Temperatura media 70 ° F -  
Temperatura máxima 81 ° F 81 ° F 93 ° F (1998)
Temperatura mínima 60 ° F 58 ° F 53 ° F (1997)
Cooling Degree Days 6    
Growing Degree Days 20 (Base 50)    
Moisture  
Punto de rocío 56 ° F    
Average Humidity 67    
Maximum Humidity 100    
Minimum Humidity 32    
Precipitación  
Precipitación 0.02 pul 0.01 pul - ()
Presión al nivel del mar  
Presión al nivel del mar 30.17 pul    
Viento  
Velocidad del viento 7 mph ()    
Velocidad máxima del viento 17 mph    
Max Gust Speed 23 mph    
Visibilidad 5.6 Millas    
Eventos Lluvia    
Averages and records for this station are not official NWS values.
T = Trace of Precipitation, MM = Missing Value Source: Averaged Metar Reports

Daily Weather History Graph

Daily Weather History Graph

Search for Another Location

Airport or City:

Astronomía

Feb. 13, 2018 Salida Puesta
Hora real 6:13 AM CST 5:53 PM CST
Crepúsculo civil 5:51 AM CST 6:15 PM CST
Crepúsculo náutico 5:26 AM CST 6:40 PM CST
Crepúsculo astronómico 5:00 AM CST 7:05 PM CST
Luna 4:33 AM CST (2/13) 4:16 PM CST (2/13)
Horas de luz 12h 23m
Horas de luz
11h 40m
Creciente menguante, 4% of the Moon is Illuminated
Feb 13
Creciente menguante
Feb 15
Nueva
Feb 23
Cuarto creciente
Mar 1
Luna llena
Mar 9
Cuarto menguante

Hourly Weather History & Observations

Hora (CST) Temp. Índice de calor Punto de rocío Humedad Presión Visibilidad Wind Dir Velocidad del viento Velocidad de ráfagas Precip Eventos Condiciones
12:00 AM 64 ° F - 58 ° F 73% 30.12 pul 6 mi NE 4.6 mph - -   Bruma
12:00 AM 64.4 ° F - 57.2 ° F 77% 30.18 pul 6.2 mi NE 4.6 mph - N/A   Nubes dispersas
1:00 AM 62.6 ° F - 59.0 ° F 88% 30.18 pul 6.2 mi NE 6.9 mph - N/A   Muy nublado
2:00 AM 62.6 ° F - 59.0 ° F 88% 30.15 pul 6.2 mi Norte 6.9 mph - N/A   Muy nublado
3:00 AM 62 ° F - 59 ° F 88% 30.09 pul 6 mi Norte 2.3 mph - -   Bruma
3:00 AM 62.6 ° F - 59.0 ° F 88% 30.15 pul 6.2 mi Norte 2.3 mph - N/A   Nubes dispersas
4:00 AM 62.6 ° F - 59.0 ° F 88% 30.15 pul 6.2 mi Norte 9.2 mph - N/A   Muy nublado
5:00 AM 62.6 ° F - 59.0 ° F 88% 30.15 pul 6.2 mi Norte 9.2 mph - N/A   Muy nublado
6:00 AM 62 ° F - 58 ° F 83% 30.12 pul 6 mi Norte 9.2 mph - -   Bruma
6:00 AM 62.6 ° F - 59.0 ° F 88% 30.18 pul 6.2 mi Norte 9.2 mph - N/A   Muy nublado
6:25 AM 60.8 ° F - 59.0 ° F 94% 30.18 pul - Norte 11.5 mph - N/A   Llovizna débil
7:00 AM 60.8 ° F - 59.0 ° F 94% 30.18 pul 3.1 mi ENE 11.5 mph - N/A   Muy nublado
8:00 AM 60.8 ° F - 60.8 ° F 100% 30.24 pul 1.2 mi Norte 11.5 mph - N/A   Llovizna débil
8:35 AM 68.0 ° F - 59.0 ° F 73% 30.24 pul 3.1 mi NE 9.2 mph - N/A   Nubes dispersas
9:00 AM 67 ° F - 57 ° F 61% 30.17 pul 5 mi NE 11.5 mph - - Lluvia Llovizna débil
9:00 AM 68.0 ° F - 57.2 ° F 68% 30.27 pul 5.0 mi NE 11.5 mph - N/A   Nubes dispersas
10:00 AM 69.8 ° F - 53.6 ° F 56% 30.27 pul 5.0 mi ENE 11.5 mph - N/A   Muy nublado
11:00 AM 71.6 ° F - 51.8 ° F 50% 30.24 pul 6.2 mi NE 13.8 mph - N/A   Muy nublado
12:00 PM 75 ° F - 52 ° F 34% 30.08 pul 6 mi NE 11.5 mph - -   Bruma
12:00 PM 75.2 ° F - 51.8 ° F 44% 30.21 pul 6.2 mi NE 11.5 mph - N/A   Nubes dispersas
1:00 PM 78.8 ° F - 53.6 ° F 42% 30.18 pul 6.2 mi NNE 13.8 mph - N/A   Nubes dispersas
2:00 PM 78.8 ° F - 53.6 ° F 42% 30.15 pul 6.2 mi NE 9.2 mph - N/A   Nubes dispersas
3:00 PM 80 ° F - 55 ° F 32% 29.97 pul 6 mi Este 17.3 mph - -   Bruma
3:00 PM 80.6 ° F 80.5 ° F 55.4 ° F 42% 30.15 pul 6.2 mi Este 11.5 mph 23.0 mph N/A   Muy nublado
3:20 PM 71.6 ° F - 57.2 ° F 60% 30.15 pul 5.0 mi Este 11.5 mph - N/A   Muy nublado
4:00 PM 69.8 ° F - 57.2 ° F 64% 30.18 pul 4.3 mi ENE 11.5 mph - N/A   Muy nublado
4:20 PM 71.6 ° F - 57.2 ° F 60% 30.15 pul 6.2 mi NNE 5.8 mph - N/A   Nubes dispersas
5:00 PM 73.4 ° F - 57.2 ° F 57% 30.15 pul 6.2 mi Variable 2.3 mph - N/A   Parcialmente nublado
6:00 PM 71 ° F - 55 ° F 47% 30.06 pul 6 mi Este 5.8 mph - -   Bruma
6:00 PM 69.8 ° F - 55.4 ° F 60% 30.18 pul 6.2 mi Este 5.8 mph - N/A   Parcialmente nublado
7:00 PM 68.0 ° F - 55.4 ° F 64% 30.18 pul 6.2 mi Norte 9.2 mph - N/A   Nubes dispersas
8:00 PM 68.0 ° F - 55.4 ° F 64% 30.21 pul 6.2 mi ENE 9.2 mph - N/A   Muy nublado
9:00 PM 66 ° F - 52 ° F 51% 30.15 pul 6 mi ENE 6.9 mph - -   Bruma
9:00 PM 66.2 ° F - 51.8 ° F 60% 30.24 pul 6.2 mi ENE 6.9 mph - N/A   Parcialmente nublado
10:00 PM 62.6 ° F - 51.8 ° F 68% 30.24 pul 6.2 mi Norte 6.9 mph - N/A   Parcialmente nublado
11:00 PM 62.6 ° F - 53.6 ° F 72% 30.24 pul 6.2 mi Norte 11.5 mph - N/A   Parcialmente nublado